User: anonymous   Login
Location: Unspecified
(0.0000°N, 0.0000°E)
Time: 05:18:02
(UTC+00:00)
Language:

Oscar 19 - Orbit

View from above orbital plane
View from above orbital plane
View from above satellite
View from above satellite

Ground track
Ground track

The orbit is defined by the following mean orbital elements,

1 20442U          26156.32126850 +.00000000 +00000-0 +61458-4 0 00000
2 20442  98.8853 177.7996 0010571 238.2188 121.7967 14.34119464    07
Epoch (UTC): 05 June 2026 07:42:37
Eccentricity: 0.0010571
inclination: 98.8853°
perigee height: 770 km
apogee height: 786 km
right ascension of ascending node: 177.7996°
argument of perigee: 238.2188°
revolutions per day: 14.34119464
mean anomaly at epoch: 121.7967°

The dashed part of the orbit path shows where the satellite is in the earth's shadow,  

DLR